Flag for Colombia Weather past 2 weeks in Bogota, Colombia

Now
66 °F

Partly sunny.


Feels Like: 66 °F
Forecast: 45 / 70 °F
Wind: 16 mph from Southeast

Location: Bogota / Eldorado

Current Time: Sep 1, 2014 at 2:00:23 PM

Latest Report: Sep 1, 2014 at 1:00 PM


Visibility: N/A

Pressure: 30.34 "Hg

Humidity: 43%

Dew point: 43 °F

Location of BogotaLocation

Historic Weather in Bogota — Graph

°F

Bogota temperature yesterday

Maximum temperature yesterday: 66 °F (at 12:00 PM)
Minimum temperature yesterday: 45 °F (at 6:00 AM)
Average temperature yesterday: 57 °F

Past Weeks' High & Low Weather Summary

 TemperatureHumidityPressure
High68 °F (Aug 22, 11:00 AM)100% (Aug 21, 4:00 AM)30.44 "Hg (Aug 21, 4:00 AM)
Low36 °F (Aug 30, 6:00 AM)30% (Aug 30, 10:00 AM)30.20 "Hg (Aug 25, 4:00 PM)
Average56 °F72%30.33 "Hg
* Reported Aug 17 12:00 Noon — Sep 1 12:00 Noon, Bogota, Weather by CustomWeather, © 2014

Note: Actual official high and low records may vary slightly from our data, if they occured in-between our weather recording intervals... More about our weather records

Advertising

Bogota weather history for previous 24 hours

 ConditionsComfort  
Time TempWeatherWind HumidityBarometerVisibility
12:00 PM
Sep 1
68 °FPartly sunny.14 mph43%30.35 "HgN/A
11:00 AM68 °FScattered clouds.23 mph40%30.37 "HgN/A
10:00 AM66 °FScattered clouds.9 mph40%30.38 "HgN/A
9:00 AM61 °FScattered clouds.16 mph63%30.40 "HgN/A
8:00 AM55 °FScattered clouds.5 mph72%30.38 "HgN/A
7:00 AM52 °FScattered clouds.8 mph82%30.36 "HgN/A
6:00 AM50 °FBroken clouds.9 mph82%30.36 "HgN/A
5:00 AM50 °FPassing clouds.6 mph88%30.35 "HgN/A
4:00 AM48 °FScattered showers. Passing clouds.3 mph87%30.35 "HgN/A
3:00 AM50 °FScattered showers. Passing clouds.5 mph88%30.34 "HgN/A
2:00 AM50 °FScattered showers. Passing clouds.6 mph82%30.36 "HgN/A
1:00 AM48 °FScattered showers. Passing clouds.5 mph87%30.37 "HgN/A
12:00 AM50 °FPassing clouds.3 mph76%30.40 "HgN/A
11:00 PM
Aug 31
50 °FPassing clouds.3 mph76%30.41 "HgN/A
10:00 PM55 °FPassing clouds.6 mph63%30.41 "HgN/A
9:00 PM55 °FPassing clouds.10 mph63%30.40 "HgN/A
8:00 PM57 °FPassing clouds.9 mph59%30.38 "HgN/A
7:00 PM61 °FPassing clouds.9 mph52%30.35 "HgN/A
6:00 PM63 °FScattered clouds.8 mph45%30.33 "HgN/A
5:00 PM63 °FScattered clouds.14 mph45%30.32 "HgN/A
4:00 PM66 °FScattered clouds.10 mph37%30.32 "HgN/A
3:00 PM66 °FPartly sunny.15 mph40%30.33 "HgN/A
2:00 PM66 °FPartly sunny.14 mph37%30.35 "HgN/A
Weather by CustomWeather, © 2014

See weather overviewHow to use our weather pages